Location: Kawakawa
(35.3830°S, 174.0670°E)
Time: 19:59:17
(UTC+12:00)

Envisat - Pass Details

Date: 24 January 2019
Orbit: 764 x 766 km, 98.2° (Epoch: 22 April)

Event Time Altitude Azimuth Distance (km) Brightness Sun altitude
Rises 21:28:13 0° 176° (S) 3,266 6.7 -9.9°
Reaches altitude 10° 21:30:38 10° 182° (S) 2,332 6.0 -10.3°
Maximum altitude 21:35:29 44° 252° (WSW) 1,066 4.3 -11.1°
Drops below altitude 10° 21:40:17 10° 323° (NW) 2,303 5.5 -12.0°
Sets 21:42:39 0° 329° (NNW) 3,221 6.2 -12.4°
